COSMOS 2251 DEB

Satellite information

Favourite Embed

Satellite Type and Status

DEBRISIN ORBIT

Key statistics

Satellite COSMOS 2251 DEB at a glance.

Uptime

11710

Days in orbit

Revolutions

≈ 14.4

Per day

Orbit

LEO

Low Earth Orbit

Inclination

73.9

Latest

Satellite identification and parameters

Extended collection of information and parameters for COSMOS 2251 DEB.

Object identification

Identified? True

Debris? True

Object name: COSMOS 2251 DEB

International designator: 1993-036AFV

Object number (NORAD): 34997

Object ID (CCSDS): 34997

Country: COMMONWEALTH OF INDEPENDENT STATES (CIS)

Current information (Y/N): Y

RCS size: SMALL

Orbital parameters

Period: 99.74 minutes

Inclination: 73.8806 deg

SMA: 7124.277 km

Apoapsis: 816.138 km

Periapsis: 676.147 km

RAAN: 254.2575 deg

Eccentricy: 0.0098249

Argument of periapsis: 264.2772 deg

Mean anomaly: 94.7175 deg

Mean motion: 14.43748429 rev/day

Mean motion (dot): 0.00002601 rev/day2

B* drag term: 0.00072964 1/REarth

Two-line elements (TLE)

Creation date: July 5, 2025, 7:06 a.m.

Reference frame: TEME

Reference center: EARTH

Epoch: July 4, 2025, 11:13 a.m. UTC

TLE line 0: 0 COSMOS 2251 DEB

TLE line 1: 1 34997U 93036AFV 25185.46762473 .00002601 00000-0 72964-3 0 9993

TLE line 2: 2 34997 73.8806 254.2575 0098249 264.2772 94.7175 14.43748429845789

Live tracking on map

Real-time ground track for satellite COSMOS 2251 DEB.

In-orbit conjunctions

A list of the most updated potential collisions computed for object COSMOS 2251 DEB.

Target Orbit TCA Probability of collision Miss distance Type
NOAA 16 DEB SSO 2024-11-10 06:03:41 0.0003759598 186.0 (m) DEBRIS

Associated space launch

Military communications satellite. Destroyed in a collision with Iridium 33.

COSMOS 2251 DEB was lifted into orbit during the mission ‘Kosmos-3M | Strela-2M 51’, on board a Kosmos-3M space rocket.

The launch took place on June 16, 1993, 4:17 a.m. from 132/1 (132L).

For more information about the launch, click the button.

Launch to space Kosmos-3M | Strela-2M 51
Kosmos-3M | Strela-2M 51

Agency: N/A

Status: Launch Successful

Launch date: June 16, 1993, 4:17 a.m. UTC

Rocket: Kosmos-3M

Launch pad: 132/1 (132L)

Location: Plesetsk Cosmodrome, Russian Federation

...

Latest news about this satellite

There are no fresh news available about this satellite. Check back as we update our databases every day.


Newsletter sign-up

Weekly statistics, charts and insights to help you stay on top of the space industry.